EW7069 Weather Reports


Display with metric or nautical units.
time (UTC)temp
F
wind
direction
speed
MPH
gust
MPH
rain 1hr
in
rain 24hr
in
rain mn
in
humidity
%
barometer
mb
20260510050002 45 1 0.0 2.0 0.00 0.04 0.00 52 999.1
20260510045003 46 0 0.0 0.0 0.00 0.04 0.00 50 998.9
20260510044002 46 0 0.0 0.0 0.00 0.04 0.00 50 998.6
20260510043002 47 0 0.0 0.0 0.00 0.04 0.00 49 998.7
20260510042002 48 0 0.0 0.0 0.00 0.04 0.00 48 998.6
20260510041002 49 1 0.0 1.0 0.00 0.04 0.00 46 998.2
20260510040002 49 1 1.0 2.0 0.00 0.04 0.00 45 997.5
20260510035002 49 1 1.0 3.0 0.00 0.04 0.04 44 996.9
20260510034002 51 1 1.0 1.0 0.00 0.04 0.04 42 997.3
20260510033002 52 1 1.0 3.0 0.00 0.04 0.04 41 996.5
20260510031002 54 1 2.0 5.0 0.00 0.04 0.04 36 996.2
20260510030002 54 1 4.0 6.0 0.00 0.04 0.04 34 996.5
20260510025003 55 1 4.0 8.0 0.00 0.04 0.04 33 996.3
20260510024003 56 1 5.0 8.0 0.00 0.04 0.04 32 996.6
20260510023002 56 1 5.0 10.0 0.00 0.04 0.04 32 996.4
20260510022002 57 1 3.0 8.0 0.00 0.04 0.04 32 997.0
20260510021001 58 1 4.0 8.0 0.00 0.04 0.04 31 996.6
20260510020002 59 1 6.0 11.0 0.00 0.04 0.04 30 997.5
20260510015002 59 1 6.0 11.0 0.00 0.04 0.04 30 998.8
20260510014003 60 1 7.0 13.0 0.00 0.04 0.04 31 1000.2
20260510013002 60 1 6.0 11.0 0.00 0.04 0.04 33 1001.8
20260510012002 61 1 5.0 8.0 0.00 0.04 0.04 33 1003.6
20260510010002 60 1 1.0 7.0 0.00 0.04 0.04 38 1000.6
20260510005003 61 1 0.0 1.0 0.00 0.04 0.04 34 1002.1
20260510004003 62 1 1.0 2.0 0.00 0.04 0.04 32 1002.4
20260510003002 63 1 1.0 2.0 0.00 0.04 0.04 30 1003.2
20260510002002 64 1 2.0 4.0 0.00 0.04 0.04 29 1004.0
20260510001003 64 1 3.0 6.0 0.00 0.04 0.04 31 1005.0
20260510000003 65 1 4.0 5.0 0.00 0.04 0.04 29 1006.3
20260509235002 66 1 6.0 8.0 0.00 0.04 0.04 28 998.9
20260509234002 67 1 5.0 8.0 0.00 0.04 0.04 26 999.6
20260509233002 67 1 6.0 8.0 0.00 0.04 0.04 25 1000.4
20260509231003 68 1 11.0 17.0 0.00 0.04 0.04 23 1000.6
20260509230002 68 1 9.0 13.0 0.00 0.04 0.04 21 1000.3
20260509225003 69 1 12.0 17.0 0.00 0.04 0.04 20 999.7
20260509224002 70 1 8.0 12.0 0.00 0.04 0.04 18 999.2
20260509223002 72 1 11.0 17.0 0.00 0.04 0.04 14 1007.4
20260509222003 74 1 9.0 14.0 0.00 0.04 0.04 17 1006.6
20260509221002 74 1 10.0 17.0 0.00 0.04 0.04 17 1005.5
20260509220002 73 1 11.0 16.0 0.00 0.04 0.04 13 1004.4
20260509215002 74 1 12.0 16.0 0.00 0.04 0.04 16 1003.1
20260509214002 74 1 13.0 21.0 0.00 0.04 0.04 17 1001.8
20260509213003 74 9 14.0 21.0 0.00 0.04 0.04 16 1000.8
20260509211002 74 253 11.0 15.0 0.00 0.04 0.04 23 999.1
20260509210002 73 321 13.0 21.0 0.00 0.04 0.04 19 998.4
20260509205002 73 301 11.0 15.0 0.00 0.04 0.04 21 997.9
20260509204002 73 314 11.0 15.0 0.00 0.04 0.04 21 997.2
20260509203002 72 1 9.0 15.0 0.00 0.04 0.04 24 996.6
20260509202003 72 333 9.0 11.0 0.00 0.04 0.04 26 996.3
20260509201002 69 268 9.0 12.0 0.00 0.04 0.04 31 996.0
20260509200003 70 314 10.0 17.0 0.00 0.04 0.04 30 995.7
20260509195003 68 314 9.0 16.0 0.00 0.04 0.04 35 995.2
20260509193002 68 309 10.0 18.0 0.02 0.04 0.04 39 1004.2
20260509191003 67 314 8.0 12.0 0.04 0.04 0.04 49 1003.5
20260509190002 65 318 9.0 15.0 0.04 0.04 0.04 56 1003.1
20260509185003 61 258 8.0 14.0 0.04 0.04 0.04 64 1002.7
20260509184002 60 253 12.0 30.0 0.04 0.04 0.04 61 1002.5
20260509183003 66 321 16.0 30.0 0.01 0.01 0.01 43 1002.7
20260509182002 69 326 9.0 15.0 0.00 0.00 0.00 33 1002.3
20260509181003 68 293 13.0 17.0 0.00 0.00 0.00 33 1002.4
20260509175002 70 346 11.0 15.0 0.00 0.00 0.00 33 1002.3
20260509174003 69 280 9.0 15.0 0.00 0.00 0.00 34 1001.8
20260509173002 69 275 10.0 17.0 0.00 0.00 0.00 32 1001.7
20260509172003 70 271 8.0 13.0 0.00 0.00 0.00 34 1001.5
20260509171003 69 253 10.0 19.0 0.00 0.00 0.00 33 1001.1
20260509170002 69 286 9.0 13.0 0.00 0.00 0.00 35 1000.6
20260509165003 69 225 6.0 10.0 0.00 0.00 0.00 35 1000.2
20260509164002 69 225 9.0 14.0 0.00 0.00 0.00 34 999.8
20260509163003 68 225 7.0 11.0 0.00 0.00 0.00 40 999.2
20260509162002 67 274 10.0 15.0 0.00 0.00 0.00 38 999.0
20260509161002 66 1 9.0 11.0 0.00 0.00 0.00 38 998.9
20260509154002 65 1 8.0 15.0 0.00 0.00 0.00 44 998.3
20260509152002 65 270 6.0 10.0 0.00 0.00 0.00 46 998.0
20260509151002 64 270 6.0 8.0 0.00 0.00 0.00 47 998.0
20260509150003 64 247 6.0 13.0 0.00 0.00 0.00 49 998.0
20260509145003 62 229 6.0 9.0 0.00 0.00 0.00 51 997.8
20260509144002 62 321 6.0 11.0 0.00 0.00 0.00 52 997.8
20260509143003 62 225 5.0 8.0 0.00 0.00 0.00 53 997.8
20260509141003 60 332 6.0 8.0 0.00 0.00 0.00 60 997.8
20260509140003 59 1 5.0 8.0 0.00 0.00 0.00 63 997.7
20260509135002 59 1 4.0 8.0 0.00 0.00 0.00 69 997.6
20260509134003 56 1 4.0 8.0 0.00 0.00 0.00 75 997.6
20260509133003 54 1 4.0 8.0 0.00 0.00 0.00 78 997.6
20260509132002 54 1 4.0 8.0 0.00 0.00 0.00 81 997.8
20260509131003 54 1 4.0 8.0 0.00 0.00 0.00 84 997.7
20260509130002 53 1 5.0 7.0 0.00 0.00 0.00 87 997.9
20260509125003 53 1 4.0 5.0 0.00 0.00 0.00 89 997.9
20260509124003 52 1 5.0 9.0 0.00 0.00 0.00 89 997.8
20260509123003 51 1 4.0 7.0 0.00 0.00 0.00 90 997.8
20260509122003 51 1 4.0 6.0 0.00 0.00 0.00 90 997.9
20260509121002 50 1 5.0 6.0 0.00 0.00 0.00 89 997.9
20260509120003 50 354 5.0 8.0 0.00 0.00 0.00 89 997.9
20260509115003 50 225 4.0 7.0 0.00 0.00 0.00 90 997.5
20260509111003 49 225 3.0 6.0 0.00 0.00 0.00 89 997.1
20260509110004 49 225 2.0 4.0 0.00 0.00 0.00 89 997.2
20260509105002 48 225 2.0 4.0 0.00 0.00 0.00 89 996.6
20260509104003 48 225 3.0 4.0 0.00 0.00 0.00 90 995.7
20260509103004 47 225 2.0 3.0 0.00 0.00 0.00 89 995.5
20260509101003 45 225 0.0 1.0 0.00 0.00 0.00 89 995.7
20260509095004 45 0 0.0 0.0 0.00 0.00 0.00 88 995.6
20260509093003 45 225 0.0 1.0 0.00 0.00 0.00 88 995.9
20260509092003 46 225 0.0 1.0 0.00 0.00 0.00 88 995.9
20260509091003 45 225 1.0 2.0 0.00 0.00 0.00 88 996.1
20260509090004 45 225 0.0 2.0 0.00 0.00 0.00 88 995.7
20260509085003 45 225 0.0 2.0 0.00 0.00 0.00 87 995.8
20260509084004 45 0 0.0 0.0 0.00 0.00 0.00 87 996.0
20260509083003 45 0 0.0 0.0 0.00 0.00 0.00 87 996.0
20260509082003 45 0 0.0 0.0 0.00 0.00 0.00 87 995.5
20260509081004 45 0 0.0 0.0 0.00 0.00 0.00 87 995.3
20260509080003 45 0 0.0 0.0 0.00 0.00 0.00 86 995.5
20260509075003 46 225 0.0 1.0 0.00 0.00 0.00 86 995.6
20260509073004 45 0 0.0 0.0 0.00 0.00 0.00 85 995.9
20260509072003 45 0 0.0 0.0 0.00 0.00 0.00 85 995.9
20260509071004 45 0 0.0 0.0 0.00 0.00 0.00 84 996.1
20260509070003 44 0 0.0 0.0 0.00 0.00 0.00 85 996.1
20260509064003 44 0 0.0 0.0 0.00 0.00 0.00 84 996.6
20260509063003 44 0 0.0 0.0 0.00 0.00 0.00 83 996.6
20260509062003 44 0 0.0 0.0 0.00 0.00 0.00 83 996.7
20260509061003 44 0 0.0 0.0 0.00 0.00 0.00 82 996.8
20260509060003 44 0 0.0 0.0 0.00 0.00 0.00 82 997.0
20260509055004 44 0 0.0 0.0 0.00 0.00 0.00 81 997.0
20260509054004 44 0 0.0 0.0 0.00 0.00 0.00 81 997.1
20260509053003 44 0 0.0 0.0 0.00 0.00 0.00 80 997.1
20260509052003 44 0 0.0 0.0 0.00 0.00 0.00 79 997.1
20260509051003 44 0 0.0 0.0 0.00 0.00 0.00 78 997.1